Vorticity
nan nan nan nan nan nan nan nan nan nan nan nan nan nan nan nan nan nan nan nan nan nan nan nan nan nan nan nan nan nan nan nan nan nan nan nan nan nan nan nan nan nan nan
nan 9 9 9 9 7 8 9 8 8 8 10 9 8 8 9 11 9 5 8 10 8 7 7 8 10 11 7 8 8 9 8 11 10 12 7 11 11 9 8 6 10 nan
nan 10 9 9 8 7 8 9 9 9 8 8 9 9 10 9 10 8 8 8 8 8 9 9 9 9 6 8 11 9 9 9 9 10 11 9 11 11 7 9 8 8 nan
nan 13 9 9 9 9 8 9 9 8 9 9 8 8 8 9 10 12 9 7 9 9 9 10 10 13 14 14 13 11 9 9 9 8 8 11 8 10 8 13 12 8 nan
nan 12 13 10 10 10 9 9 8 10 9 8 8 9 8 9 14 9 8 9 10 10 10 10 11 14 16 19 21 18 13 10 9 11 10 10 12 11 12 8 10 11 nan
nan 14 12 12 12 11 11 10 9 9 8 9 9 9 9 7 10 9 11 10 9 10 12 16 17 8 2 9 15 14 17 16 13 10 11 12 13 11 11 9 9 10 nan
nan 12 15 13 11 12 11 10 13 11 11 11 10 11 12 12 5 10 10 13 13 12 13 16 10 9 8 4 6 4 6 12 16 17 12 12 11 8 12 13 9 10 nan
nan 11 11 10 8 10 14 13 12 12 14 15 15 15 11 8 10 14 12 12 11 11 12 13 11 9 12 10 6 6 6 9 14 18 16 12 11 13 12 10 14 11 nan
nan 11 8 9 11 10 10 11 12 15 13 13 15 16 11 4 5 13 18 13 8 7 6 9 15 10 10 15 12 9 7 6 7 11 12 9 7 12 18 15 13 7 nan
nan 11 11 9 8 9 11 8 10 13 12 11 11 8 12 8 9 13 14 13 11 7 6 5 8 16 14 12 13 8 9 8 10 6 3 1 4 6 13 23 16 12 nan
nan 17 17 13 10 9 10 11 12 10 9 9 9 9 8 9 12 16 17 15 12 9 9 8 6 15 19 16 14 12 12 8 8 10 10 9 10 9 10 11 15 19 nan
nan 12 14 17 15 13 12 11 11 11 9 9 9 8 7 6 9 20 19 17 17 12 9 9 10 15 15 14 15 15 11 9 9 10 11 10 10 9 9 10 12 13 nan
nan 8 11 13 15 14 10 9 8 9 9 9 8 10 12 9 6 6 12 13 14 13 11 11 10 11 11 12 13 7 6 9 11 11 9 8 10 13 10 7 8 6 nan
nan 11 13 11 11 10 10 10 11 11 9 11 12 10 9 10 10 7 7 10 9 9 9 7 11 9 9 8 6 8 11 12 11 11 11 11 10 8 9 10 10 8 nan
nan 10 10 9 8 7 8 14 14 10 16 19 14 12 11 11 9 12 16 13 8 8 8 7 7 7 9 10 11 12 12 10 9 10 10 10 11 11 10 10 9 11 nan
nan 9 9 10 10 10 9 4 6 11 13 13 18 18 13 12 12 13 12 13 9 9 12 9 10 10 10 10 10 11 11 11 10 10 11 11 11 11 9 10 10 10 nan
nan 10 11 12 10 10 10 8 4 3 7 9 11 10 15 11 9 11 9 3 7 15 16 11 10 10 10 10 10 10 9 10 11 10 11 11 11 10 9 9 10 10 nan
nan 10 11 10 10 10 11 12 12 10 6 3 5 11 9 8 8 6 4 11 18 13 9 10 11 11 10 11 11 11 11 9 9 10 10 10 9 10 10 10 11 10 nan
nan 9 10 10 9 11 12 11 11 11 11 11 10 9 7 7 10 11 10 13 10 11 9 10 11 11 11 11 10 10 10 9 11 10 10 10 10 9 9 9 7 9 nan
nan 10 15 12 11 10 10 10 10 12 11 10 10 13 12 8 11 11 11 12 10 11 11 10 10 11 10 10 11 10 11 11 9 9 10 10 10 11 11 10 10 10 nan
nan 6 9 12 10 10 11 11 11 10 11 10 9 5 11 13 11 11 12 10 10 9 10 11 11 10 11 10 10 9 9 10 10 10 11 10 10 11 10 11 11 11 nan
nan 10 9 9 10 12 8 9 9 9 9 10 9 8 6 11 10 9 10 10 10 9 11 10 10 10 11 10 10 10 10 10 10 10 10 11 11 10 11 10 10 11 nan
nan 11 11 10 8 8 11 9 10 9 8 9 10 10 8 9 9 10 9 10 9 10 9 9 10 9 10 9 10 10 11 11 11 11 10 11 11 12 10 10 9 9 nan
nan 10 10 10 12 7 10 8 7 8 13 11 8 8 10 11 10 9 10 12 11 10 8 11 10 10 8 8 9 9 16 16 11 12 10 11 11 12 10 10 9 10 nan
nan 10 10 10 9 10 9 9 11 11 8 8 11 10 7 8 11 11 13 14 12 12 10 8 11 11 9 8 7 11 12 13 8 13 15 11 12 9 8 10 11 10 nan
nan nan nan nan nan nan nan nan nan nan nan nan nan nan nan nan nan nan nan nan nan nan nan nan nan nan nan nan nan nan nan nan nan nan nan nan nan nan nan nan nan nan nan
CAPE
1915 1743 1826 1893 1867 2087 1664 1932 1676 1207 1335 1424 2321 2020 2011 1300 1389 1803 1732 1379 1351 1222 1169 1543 1523 1617 1296 1177 988 1070 1559 1015 561 1459 1354 1532 1540 1253 1131 1266 679 760 90
1824 1891 1787 1965 1970 1794 1742 1628 1937 1546 1434 2026 2132 2017 2039 1904 1964 1550 1443 1123 1111 1252 1429 1432 1419 1214 1662 1495 1021 1343 1295 1138 880 1452 1754 1633 1837 1258 1219 1128 649 189 192
1773 1791 1663 1981 2072 1878 1768 1952 1758 1984 2100 1962 1931 1792 1206 1363 1587 1398 1509 1586 1546 1117 1199 1328 1361 1370 1530 1253 1481 1079 1112 1032 999 777 1543 1335 1859 1186 654 735 609 363 28
1727 1698 1700 1969 2078 1876 1829 2123 1938 1988 2036 1933 2084 1481 1194 1190 1443 1537 1561 1542 1484 1256 1486 1743 1731 1420 1411 1589 1389 1475 1238 1992 1043 879 1313 1593 1840 1240 1021 866 626 395 89
1667 1753 1785 1879 2076 2150 2086 2245 1844 2063 1975 1906 1997 1577 1368 1444 1406 1814 1685 1615 1876 1667 1610 1803 1644 710 3 402 1871 1781 1669 1771 2610 1126 499 661 965 1440 798 834 872 241 106
1485 1719 2173 2323 2245 2302 2457 2586 2475 2227 1977 1873 1919 1606 1502 1235 1 0 33 1399 1732 1767 1806 1759 1789 172 1 0 0 0 2 667 1085 1375 835 1092 1296 909 793 579 275 189 213
817 1353 1682 1914 1453 1760 1889 1797 2152 1889 1471 1674 1850 1745 1695 1547 0 0 0 1103 1415 1365 1138 1550 1527 683 565 98 0 0 0 0 0 60 566 242 780 619 576 692 318 283 146
992 1110 999 915 818 833 1252 1490 1145 1280 1561 1679 1527 1475 918 0 0 0 6 965 791 569 337 342 582 408 227 461 93 0 0 0 0 0 0 0 0 0 58 244 350 68 5
768 656 651 692 593 747 602 558 467 459 282 173 408 387 133 6 0 1 0 487 394 110 6 3 97 180 0 0 6 0 0 0 0 0 0 0 0 0 0 97 202 102 11
34 203 120 175 32 123 172 115 26 12 7 7 6 7 1 8 1 1 0 116 118 4 6 6 0 0 1 0 0 0 0 0 0 0 0 0 0 0 0 2 29 131 0
36 20 113 146 172 87 54 3 3 5 2 2 4 5 4 1 3 1 0 17 13 4 1 0 0 0 0 0 0 0 0 0 0 0 0 0 0 0 0 0 0 4 1
2 2 2 4 16 1 0 2 2 2 1 2 2 2 2 2 0 1 0 0 0 0 3 5 3 1 1 0 0 0 0 1 7 0 0 0 0 0 0 0 0 0 3
6 2 1 2 3 4 1 2 2 3 3 3 5 4 4 4 2 0 0 0 0 3 3 0 0 0 0 0 0 0 1 3 0 0 0 0 0 0 0 0 0 0 0
2 3 4 3 5 9 6 6 4 1 2 5 7 8 6 4 1 0 0 0 0 0 0 0 0 0 0 0 0 0 0 0 0 0 0 0 0 0 0 0 0 0 0
1 1 1 4 1 0 0 0 7 0 0 0 2 0 0 0 0 0 0 5 5 0 0 0 0 0 0 0 0 0 0 0 0 0 0 0 0 0 0 0 0 0 0
1 1 0 0 0 0 0 0 0 0 1 2 0 0 0 0 1 0 0 0 0 0 5 8 7 3 0 0 0 0 0 0 0 0 0 0 0 0 0 0 0 0 0
0 0 0 1 0 0 0 0 0 0 0 0 0 0 0 0 1 0 0 0 0 0 0 0 0 0 0 0 0 0 0 0 0 0 0 0 0 0 0 0 0 0 0
0 0 0 0 0 0 0 0 0 1 0 0 0 0 0 1 1 1 1 0 0 0 0 0 0 0 0 0 0 0 0 0 0 0 0 0 0 0 0 0 0 0 0
0 0 0 0 0 0 0 0 0 0 1 0 0 0 0 0 0 0 0 9 8 5 3 2 0 0 0 0 0 0 0 0 0 0 0 0 0 0 0 0 0 0 0
1 0 0 0 0 0 0 0 0 0 0 0 0 0 0 0 3 7 4 1 1 4 4 3 0 0 0 0 0 0 0 0 0 0 0 0 0 0 0 0 0 0 0
0 0 0 0 0 0 0 0 0 0 0 0 0 0 0 10 1 0 0 0 0 0 0 0 0 0 0 0 0 0 0 0 0 0 0 0 0 0 0 0 0 0 0
0 0 0 0 0 0 0 0 0 0 0 0 0 0 0 0 7 2 0 0 0 0 0 0 0 0 0 0 0 0 0 0 0 0 0 0 0 0 0 0 0 0 0
0 0 0 0 0 0 0 2 3 3 3 2 2 1 0 0 6 14 17 4 2 6 5 0 2 0 0 0 0 0 0 0 0 0 0 0 0 0 0 0 0 0 2
0 0 0 0 0 0 0 0 5 0 8 13 12 12 13 22 22 23 28 33 26 33 34 38 30 24 25 14 7 0 0 0 0 0 0 0 0 0 0 0 0 2 5
0 1 2 0 0 0 5 8 16 20 16 15 20 17 24 36 45 56 57 59 48 41 52 46 64 32 37 63 47 15 0 0 1 0 0 0 0 0 0 2 3 10 16
0 2 2 6 8 10 9 14 13 10 14 15 9 11 29 39 58 38 48 53 55 65 63 53 41 56 64 82 56 0 0 0 0 0 0 0 0 0 5 11 19 16 12